Weather observations for the past three days for
Deming Municipal Airport
Metric (Imperial)
Date Time (mdt) Wind (kph) Vis. (km) Weather Sky Cond. Temperature (ºC) Relative Humidity Wind Chill (°C) Heat Index (°C) Pressure Precipitation (cm)
Air Dwpt 6 hour altimeter (cm) sea level (mb) 1 hr 3 hr 6 hr
Max. Min.
15 05:53 SW 7 16.09 Fair CLR 21.7 8.3 26.7 21.1 42% 76.56 1011.8
15 04:53 W 9 16.09 Fair CLR 22.2 11.7 52% 76.53 1011.5
15 03:53 Vrbl 9 16.09 Fair CLR 23.3 7.8 37% 76.53 1011.3
15 02:53 W 9 16.09 Fair CLR 23.3 7.8 37% 76.53 1011.4
15 01:53 W 6 16.09 Fair CLR 23.9 7.8 36% 25 76.56 1011.7
15 00:53 NW 9 16.09 Fair CLR 26.1 6.7 29% 26 76.58 1011.7
14 23:53 SW 7 16.09 Fair CLR 26.7 7.2 36.7 26.7 29% 26 76.58 1012.0
14 22:53 S 9 16.09 Fair CLR 28.3 6.1 24% 27 76.56 1011.6
14 21:53 SE 7 16.09 Fair CLR 29.4 5.6 22% 28 76.53 1011.3
14 20:53 SE 9 16.09 Fair CLR 31.7 5.6 19% 30 76.48 1010.8
14 19:53 SE 13 16.09 Fair CLR 34.4 6.1 17% 32 76.45 1010.2
14 18:53 SE 11 16.09 Fair CLR 35.6 6.7 17% 33 76.43 1010.1
14 17:53 E 13 G 31 16.09 Fair CLR 36.1 6.1 37.2 32.8 16% 34 76.43 1010.2
14 16:53 Calm 16.09 Fair CLR 36.7 7.2 16% 34 76.5 1010.9
14 15:53 Vrbl 9 16.09 Partly Cloudy SCT100 35 8.9 20% 33 76.56 1012.0
14 14:53 Vrbl 7 16.09 A Few Clouds FEW100 35.6 10.6 22% 34 76.63 1012.8
14 13:53 SE 17 G 33 16.09 Fair CLR 35 10 22% 33 76.68 1013.5
14 12:53 Calm 16.09 Fair CLR 34.4 10 22% 33 76.73 1014.1
14 11:53 E 7 16.09 Fair CLR 32.8 11.7 33.3 22.2 27% 31 76.76 1014.6
14 10:53 E 17 G 30 16.09 Fair CLR 31.7 13.3 33% 31 76.78 1014.8
14 09:53 SE 9 16.09 Fair CLR 28.9 12.8 37% 28 76.81 1015.1
14 08:53 NE 15 16.09 Fair CLR 27.2 12.8 41% 27 76.81 1015.3
14 07:53 E 19 16.09 Fair CLR 25 11.7 43% 26 76.78 1014.9
14 06:53 E 9 16.09 Fair CLR 22.8 10.6 46% 76.76 1014.7
14 05:53 NE 19 16.09 Fair CLR 22.2 9.4 25 21.7 44% 76.73 1014.1
14 04:53 NE 17 16.09 Fair CLR 22.8 8.3 40% 76.71 1013.7
14 03:53 NE 13 16.09 Fair CLR 22.8 6.1 34% 76.68 1013.4
14 02:53 NE 13 16.09 Fair CLR 23.3 5 31% 76.68 1013.5
14 01:53 NE 13 16.09 Fair CLR 23.9 3.9 27% 25 76.68 1013.7
14 00:53 N 11 16.09 Fair CLR 24.4 3.3 25% 25 76.73 1014.1
13 23:53 N 6 16.09 Fair CLR 24.4 4.4 35.6 24.4 27% 25 76.71 1013.9
13 22:53 Calm 16.09 Fair CLR 26.7 3.3 22% 26 76.68 1013.6
13 21:53 SE 9 16.09 Fair CLR 30 3.9 19% 28 76.63 1012.7
13 20:53 SE 11 16.09 Fair CLR 31.1 3.9 18% 29 76.58 1012.2
13 19:53 SE 17 16.09 Fair CLR 33.9 3.3 14% 31 76.56 1011.8
13 18:53 E 20 G 30 16.09 Fair CLR 35 5 15% 33 76.53 1011.6
13 17:53 E 17 16.09 Fair CLR 35.6 5.6 36.7 32.2 15% 33 76.53 1011.6
13 16:53 SE 31 G 44 16.09 Fair CLR 36.1 5.6 15% 34 76.56 1011.9
13 15:53 E 19 G 35 16.09 Fair CLR 35.6 5.6 15% 33 76.63 1013.1
13 14:53 SE 17 G 31 16.09 Fair CLR 35.6 5.6 15% 33 76.68 1013.6
13 13:53 Calm 16.09 Fair CLR 35 4.4 15% 33 76.73 1014.3
13 12:53 E 17 G 31 16.09 Fair CLR 33.3 4.4 16% 31 76.78 1014.8
13 11:53 E 19 G 31 16.09 Fair CLR 32.8 4.4 32.8 20.6 17% 31 76.81 1015.2
13 10:53 SE 17 16.09 Fair CLR 31.1 5 19% 29 76.86 1015.8
13 09:53 E 13 16.09 Fair CLR 29.4 7.2 25% 28 76.86 1016.1
13 08:53 E 20 16.09 Fair CLR 27.2 6.7 27% 26 76.89 1016.3
13 07:53 E 15 16.09 Fair CLR 24.4 6.7 32% 25 76.89 1016.2
13 06:53 NE 17 16.09 Fair CLR 21.1 5 35% 76.81 1015.7
13 05:53 NE 11 16.09 Fair CLR 21.1 4.4 25.6 20.6 34% 76.78 1015.1
13 04:53 N 13 16.09 Fair CLR 21.1 4.4 34% 76.73 1014.6
13 03:53 NW 11 16.09 Fair CLR 21.1 5.6 37% 76.71 1014.1
13 02:53 NE 13 16.09 Fair CLR 22.8 3.9 29% 76.68 1013.5
13 01:53 N 9 16.09 Fair CLR 23.3 4.4 29% 76.68 1013.4
13 00:53 E 11 16.09 Fair CLR 25 3.3 24% 25 76.68 1013.3
12 23:53 E 6 16.09 Fair CLR 25.6 3.3 35 25 24% 25 76.66 1013.1
12 22:53 SE 9 16.09 Fair CLR 27.8 3.9 22% 27 76.63 1012.8
12 21:53 SE 7 16.09 Fair CLR 28.3 4.4 22% 27 76.58 1012.3
12 20:53 E 11 16.09 Fair CLR 30 3.9 19% 28 76.53 1011.4
12 19:53 E 13 16.09 Fair CLR 32.8 3.9 16% 31 76.48 1011.0
12 18:53 E 20 G 28 16.09 Fair CLR 34.4 2.8 14% 32 76.48 1010.9
12 17:53 E 15 16.09 Fair CLR 35 2.2 36.1 31.7 13% 32 76.48 1010.7
12 16:53 E 17 G 37 16.09 Fair CLR 35 2.2 13% 32 76.5 1011.0
12 15:53 E 17 G 35 16.09 Fair CLR 34.4 2.2 13% 32 76.56 1011.4
12 14:53 E 31 G 43 16.09 Fair CLR 35 3.3 14% 32 76.61 1012.2
12 13:53 NE 22 G 33 16.09 Fair CLR 34.4 3.3 14% 32 76.63 1012.7
12 12:53 E 24 G 37 16.09 Fair CLR 33.3 3.3 15% 31 76.68 1013.7
12 11:53 E 22 G 39 16.09 Fair CLR 32.2 6.7 32.2 22.2 20% 30 76.73 1014.6
12 10:53 E 15 G 33 16.09 Fair CLR 30.6 7.8 24% 29 76.76 1014.8
12 09:53 E 19 16.09 Fair CLR 29.4 8.9 28% 28 76.78 1015.1
12 08:53 NE 13 16.09 Fair CLR 27.2 8.3 30% 27 76.78 1015.2
12 07:53 NE 9 16.09 Fair CLR 25 8.3 35% 26 76.76 1014.8
12 06:53 NE 15 16.09 Fair CLR 22.2 7.8 40% 76.71 1014.4
Date Time (mdt) Wind (kph) Vis. (km) Weather Sky Cond. Air Dwpt Max. Min. Relative Humidity Wind Chill (°C) Heat Index (°C) altimeter (cm) sea level (mb) 1 hr 3 hr 6 hr
6 hour
Temperature (ºC) Pressure Precipitation (cm)